EW8459 Weather Reports


time (UTC)temp
C
wind
direction
speed
KPH
gust
KPH
rain 1hr
cm
rain 24hr
cm
rain mn
cm
humidity
%
barometer
mb
20260507085349 8 315 0.0 1.6 0.03 0.00 0.00 89 1005.4
20260507084849 8 310 0.0 1.6 0.03 0.00 0.00 89 1005.5
20260507084349 8 328 0.0 3.2 0.03 0.00 0.00 89 1005.7
20260507083849 9 328 0.0 3.2 0.03 0.00 0.00 89 1005.5
20260507083347 9 298 0.0 3.2 0.03 0.00 0.00 88 1005.5
20260507083104 9 298 1.6 6.4 0.03 0.00 0.00 88 1005.4
20260507082343 9 342 1.6 6.4 0.03 0.00 0.00 88 1005.5
20260507082104 9 277 0.0 4.8 0.03 0.00 0.00 88 1005.3
20260507081341 9 255 0.0 3.2 0.00 0.00 0.00 87 1005.3
20260507081329 9 266 1.6 4.8 0.00 0.00 0.00 87 1005.3
20260507080608 10 323 1.6 6.4 0.00 0.00 0.00 86 1005.4
20260507075837 10 294 1.6 6.4 0.00 0.00 0.00 86 1005.5
20260507075335 10 311 1.6 4.8 0.00 0.00 0.00 85 1005.4
20260507074834 10 273 1.6 8.0 0.00 0.00 0.00 85 1005.7
20260507074335 10 297 3.2 11.3 0.00 0.00 0.00 85 1005.6
20260507073833 10 297 3.2 11.3 0.00 0.00 0.00 85 1005.3
20260507073331 10 305 3.2 11.3 0.00 0.00 0.00 86 1005.0
20260507072831 10 286 1.6 11.3 0.00 0.00 0.00 86 1005.1
20260507072333 10 334 3.2 11.3 0.00 0.00 0.00 86 1004.8
20260507071830 10 318 4.8 16.1 0.00 0.00 0.00 85 1005.0
20260507071559 10 296 4.8 16.1 0.00 0.00 0.00 85 1005.1
20260507071056 10 335 3.2 17.7 0.00 0.00 0.00 87 1005.1
20260507070333 10 316 3.2 17.7 0.00 0.00 0.00 87 1005.3
20260507065831 10 300 1.6 12.9 0.00 0.00 0.00 88 1004.8
20260507065330 10 289 1.6 12.9 0.00 0.00 0.00 88 1005.0
20260507064829 10 299 0.0 0.0 0.00 0.00 0.00 89 1004.9
20260507064553 10 329 0.0 0.0 0.00 0.00 0.00 89 1004.9
20260507063823 10 289 0.0 0.0 0.00 0.00 0.00 90 1004.8
20260507063321 10 285 0.0 0.0 0.00 0.00 0.00 90 1004.6
20260507062821 10 289 0.0 0.0 0.00 0.00 0.00 89 1004.5
20260507062321 10 289 0.0 6.4 0.00 0.00 0.00 90 1004.6
20260507061821 10 288 0.0 6.4 0.00 0.00 0.00 89 1004.7
20260507061320 10 302 0.0 3.2 0.00 0.00 0.00 89 1004.6
20260507060821 10 336 0.0 4.8 0.00 0.00 0.00 89 1004.6
20260507060321 10 295 1.6 4.8 0.00 0.00 0.00 90 1004.7
20260507055821 11 302 1.6 9.7 0.00 0.00 0.00 90 1004.8
20260507055548 11 254 1.6 9.7 0.00 0.00 0.00 90 1004.8
20260507054820 11 264 0.0 3.2 0.00 0.00 0.00 91 1005.0
20260507054320 11 310 0.0 3.2 0.00 0.00 0.00 92 1005.0
20260507053821 11 318 0.0 3.2 0.00 0.00 0.00 91 1005.1
20260507053325 11 318 0.0 3.2 0.00 0.00 0.00 92 1004.8
20260507052823 11 282 0.0 3.2 0.00 0.00 0.00 92 1005.0
20260507052325 11 325 0.0 1.6 0.00 0.00 0.00 92 1005.2
20260507051822 11 291 0.0 4.8 0.00 0.00 0.00 92 1005.3
20260507051325 11 288 0.0 4.8 0.00 0.00 0.00 91 1005.1
20260507050815 11 304 0.0 0.0 0.00 0.00 0.00 91 1004.9
20260507050803 11 318 1.6 0.0 0.00 0.00 0.00 91 1005.0
20260507045652 11 288 1.6 4.8 0.00 0.00 0.00 91 1005.0
20260507045154 11 303 1.6 4.8 0.00 0.00 0.00 92 1004.9
20260507044650 11 295 1.6 4.8 0.00 0.00 0.00 92 1004.8
20260507044144 11 285 1.6 4.8 0.00 0.00 0.00 92 1004.7
20260507043638 11 277 1.6 4.8 0.00 0.00 0.00 91 1004.9
20260507043136 11 277 1.6 6.4 0.00 0.00 0.00 91 1004.8
20260507042637 12 311 3.2 8.0 0.00 0.00 0.00 91 1004.9
20260507042136 12 295 3.2 11.3 0.00 0.00 0.00 90 1004.9
20260507041636 12 287 3.2 11.3 0.03 0.00 0.00 90 1005.0
20260507041401 12 292 3.2 11.3 0.03 0.00 0.00 90 1005.1
20260507040634 12 290 3.2 11.3 0.03 0.00 0.00 91 1005.0
20260507040137 13 269 3.2 11.3 0.03 0.00 0.00 91 1004.7
20260507035633 13 308 3.2 11.3 0.03 0.00 0.00 91 1004.6
20260507035133 13 321 3.2 12.9 0.03 0.00 0.00 91 1004.5
20260507034631 14 313 3.2 12.9 0.03 0.00 0.00 90 1004.4
20260507034134 14 327 3.2 11.3 0.03 0.00 0.00 91 1004.3
20260507033630 15 326 1.6 9.7 0.03 0.00 0.00 92 1004.2
20260507033134 15 316 1.6 9.7 0.03 0.00 0.00 93 1004.1
20260507032631 15 299 1.6 12.9 0.03 0.00 0.00 93 1003.9
20260507032131 15 298 1.6 12.9 0.03 0.00 0.00 94 1003.9
20260507031631 15 325 0.0 3.2 0.00 0.00 0.00 93 1003.9
20260507031130 15 275 0.0 4.8 0.00 0.00 0.00 93 1003.8
20260507030631 15 245 0.0 4.8 0.00 0.00 0.00 93 1003.7
20260507030127 15 317 1.6 6.4 0.00 0.00 0.00 93 1003.8
20260507025620 15 220 1.6 6.4 0.00 0.00 0.00 93 1003.7
20260507025116 15 162 0.0 6.4 0.00 0.00 0.00 93 1003.6
20260507024607 15 155 0.0 6.4 0.00 0.00 0.00 93 1003.6
20260507024306 15 180 1.6 6.4 0.00 0.00 0.00 93 1003.7
20260507024252 15 206 0.0 6.4 0.00 0.00 0.00 93 1003.7
20260507023106 15 179 0.0 4.8 0.00 0.00 0.00 93 1003.7
20260507022602 15 170 0.0 6.4 0.00 0.00 0.00 93 1003.5
20260507022105 15 202 1.6 6.4 0.00 0.00 0.00 93 1003.6
20260507021826 15 151 1.6 6.4 0.00 0.00 0.00 93 1003.6
20260507021105 15 156 1.6 6.4 0.00 0.00 0.00 93 1003.5
20260507020603 15 184 3.2 9.7 0.00 0.00 0.00 93 1003.6
20260507020329 15 200 3.2 9.7 0.00 0.00 0.00 93 1003.7
20260507015604 15 188 1.6 6.4 0.00 0.00 0.00 93 1003.7
20260507015106 15 192 1.6 6.4 0.00 0.00 0.00 93 1003.8
20260507014604 15 182 1.6 8.0 0.00 0.00 0.00 93 1003.7
20260507014105 15 152 1.6 8.0 0.00 0.00 0.00 93 1003.8
20260507013820 15 187 1.6 6.4 0.00 0.00 0.00 93 1003.8
20260507013104 15 162 3.2 12.9 0.00 0.00 0.00 93 1003.8
20260507012602 15 177 3.2 12.9 0.00 0.00 0.00 93 1003.9
20260507012104 15 163 3.2 9.7 0.00 0.00 0.00 93 1003.9
20260507011602 15 164 3.2 9.7 0.00 0.00 0.00 93 1003.9
20260507011102 15 234 3.2 8.0 0.00 0.00 0.00 93 1003.9
20260507010602 15 155 3.2 11.3 0.00 0.00 0.00 93 1004.0
20260507005602 15 155 4.8 11.3 0.00 0.00 0.00 93 1003.9
20260507005102 15 177 4.8 9.7 0.00 0.00 0.00 93 1003.9
20260507004602 15 171 3.2 11.3 0.00 0.00 0.00 93 1003.8
20260507004103 15 179 4.8 11.3 0.00 0.00 0.00 93 1003.8
20260507003602 15 165 4.8 9.7 0.00 0.00 0.00 93 1003.7
20260507003102 15 156 4.8 11.3 0.03 0.00 0.00 93 1003.8
20260507002824 15 113 4.8 11.3 0.05 0.00 0.00 93 1003.9
20260507002102 15 161 3.2 8.0 0.10 0.00 0.00 93 1003.8
20260507001602 15 191 3.2 8.0 0.13 0.00 0.00 93 1003.8
20260507001327 15 171 3.2 8.0 0.13 0.00 0.00 93 1003.7
20260507000603 15 151 3.2 11.3 0.15 0.00 0.00 93 1003.7
20260506235604 15 173 3.2 8.0 0.18 0.00 0.00 93 1003.6
20260506235316 15 163 3.2 8.0 0.20 0.00 0.00 93 1003.6
20260506234550 15 150 3.2 9.7 0.25 0.00 0.00 93 1003.6
20260506234044 15 157 3.2 9.7 0.28 0.00 0.00 93 1003.5
20260506233538 15 161 3.2 9.7 0.30 0.00 0.00 93 1003.7
20260506233034 15 153 4.8 9.7 0.33 0.00 0.00 93 1003.6
20260506232527 15 162 4.8 11.3 0.33 0.00 0.00 93 1003.6
20260506232242 15 206 4.8 11.3 0.28 0.00 0.00 93 1003.7
20260506231514 15 155 4.8 8.0 0.28 0.00 0.00 93 1003.7
20260506231009 15 162 3.2 8.0 0.30 0.00 0.00 93 1003.8
20260506230507 15 161 3.2 12.9 0.30 0.00 0.00 92 1004.0
20260506230006 15 178 3.2 12.9 0.28 0.00 0.00 93 1003.9
20260506225507 15 174 4.8 9.7 0.28 0.00 0.00 92 1003.8
20260506225007 15 155 3.2 8.0 0.23 0.00 0.00 92 1003.9
20260506224505 15 173 3.2 6.4 0.23 0.00 0.00 92 1004.0
20260506224005 15 159 3.2 8.0 0.20 0.00 0.00 92 1004.0
20260506223725 15 163 4.8 8.0 0.15 0.00 0.00 92 1004.0
20260506223004 15 107 3.2 8.0 0.13 0.00 0.00 92 1004.0
20260506222503 15 163 3.2 8.0 0.10 0.00 0.00 92 1004.1
20260506222002 15 171 3.2 11.3 0.13 0.00 0.00 92 1004.0
20260506221504 15 167 3.2 11.3 0.10 0.00 0.00 92 1004.1
20260506221003 15 167 3.2 8.0 0.10 0.00 0.00 92 1004.2
20260506220502 15 142 4.8 14.5 0.10 0.00 0.00 92 1004.3
20260506220002 15 183 4.8 14.5 0.13 0.00 0.00 91 1004.3
20260506215503 15 161 4.8 9.7 0.15 0.00 0.00 92 1004.3
20260506215002 16 163 4.8 9.7 0.18 0.00 0.00 91 1004.2
20260506214503 16 172 4.8 8.0 0.15 0.00 0.00 91 1004.3
20260506214002 16 164 4.8 8.0 0.18 0.00 0.00 91 1004.5
20260506213502 16 171 4.8 9.7 0.20 0.00 0.00 91 1004.5
20260506213002 16 176 4.8 12.9 0.23 0.00 0.00 91 1004.5
20260506212727 16 167 4.8 12.9 0.25 0.00 0.00 91 1004.6
20260506212003 16 180 4.8 9.7 0.25 0.00 0.00 90 1004.7
20260506211503 16 180 3.2 8.0 0.30 0.00 0.00 91 1004.7
20260506211002 16 123 4.8 11.3 0.30 0.00 0.00 91 1004.7
20260506210500 16 175 4.8 11.3 0.28 0.00 0.00 90 1004.8
20260506205959 16 150 4.8 9.7 0.25 0.00 0.00 90 1004.9
20260506205458 16 159 4.8 11.3 0.25 0.00 0.00 90 1004.8
20260506205221 16 166 3.2 11.3 0.25 0.00 0.00 90 1004.9
20260506204456 16 164 3.2 9.7 0.25 0.00 0.00 89 1005.0
20260506203956 16 138 3.2 8.0 0.25 0.00 0.00 89 1004.9
20260506203456 16 148 4.8 9.7 0.23 0.00 0.00 88 1004.8
20260506203222 16 155 4.8 9.7 0.23 0.00 0.00 87 1004.8
20260506202456 16 157 4.8 9.7 0.20 0.00 0.00 87 1004.8
20260506201956 17 129 4.8 9.7 0.20 0.00 0.00 87 1004.8
20260506201456 17 167 3.2 9.7 0.15 0.00 0.00 87 1004.8
20260506200956 17 185 3.2 9.7 0.13 0.00 0.00 85 1004.8
20260506200726 17 159 4.8 16.1 0.13 0.00 0.00 85 1004.8
20260506195948 17 160 4.8 16.1 0.10 0.00 0.00 83 1004.7
20260506195439 17 149 3.2 11.3 0.08 0.00 0.00 81 1004.8
20260506194939 18 155 3.2 9.7 0.08 0.00 0.00 82 1004.8
20260506194704 18 171 3.2 9.7 0.05 0.00 0.00 81 1004.8
20260506193938 18 159 3.2 6.4 0.05 0.00 0.00 79 1004.8
20260506193438 18 160 4.8 16.1 0.05 0.00 0.00 77 1004.8
20260506193420 19 164 4.8 16.1 0.03 0.00 0.00 75 1004.8
20260506192439 19 206 4.8 14.5 0.03 0.00 0.00 74 1005.0
20260506191938 20 175 4.8 14.5 0.00 0.00 0.00 71 1004.9
20260506191437 20 175 4.8 19.3 0.00 0.00 0.00 68 1004.9
20260506191154 20 162 6.4 19.3 0.00 0.00 0.00 66 1004.9
20260506190434 21 187 3.2 12.9 0.00 0.00 0.00 65 1004.9
20260506185935 21 188 3.2 8.0 0.00 0.00 0.00 63 1004.9
20260506185433 21 169 3.2 12.9 0.00 0.00 0.00 62 1004.9
20260506184932 21 198 4.8 12.9 0.00 0.00 0.00 63 1004.9
20260506184653 21 157 6.4 12.9 0.00 0.00 0.00 62 1004.9
20260506183932 21 148 6.4 12.9 0.00 0.00 0.00 61 1004.8
20260506183433 21 166 3.2 11.3 0.00 0.00 0.00 62 1004.8
20260506183206 21 181 4.8 16.1 0.00 0.00 0.00 61 1004.8
20260506182432 21 102 4.8 16.1 0.00 0.00 0.00 60 1004.9
20260506182153 22 146 4.8 9.7 0.00 0.00 0.00 62 1004.8
20260506181431 22 159 6.4 22.5 0.00 0.00 0.00 60 1004.9
20260506180931 22 166 6.4 22.5 0.00 0.00 0.00 55 1004.9
20260506180431 22 169 8.0 17.7 0.00 0.00 0.00 55 1004.9
20260506175930 22 176 6.4 17.7 0.00 0.00 0.00 54 1005.0
20260506175431 23 181 6.4 14.5 0.00 0.00 0.00 55 1005.1
20260506175148 23 140 6.4 14.5 0.00 0.00 0.00 54 1005.1
20260506174420 23 170 6.4 14.5 0.00 0.00 0.00 54 1005.0
20260506173913 23 182 8.0 17.7 0.00 0.00 0.00 54 1005.1
20260506173407 23 132 9.7 24.1 0.00 0.00 0.00 53 1005.1
20260506172906 23 172 8.0 24.1 0.00 0.00 0.00 52 1005.0
20260506172406 23 148 8.0 16.1 0.00 0.00 0.00 53 1005.0
20260506171907 23 163 6.4 16.1 0.00 0.00 0.00 52 1005.2
20260506171406 23 176 6.4 14.5 0.00 0.00 0.00 53 1005.2
20260506171124 23 196 6.4 16.1 0.00 0.00 0.00 53 1005.3
20260506170406 22 163 8.0 22.5 0.00 0.00 0.00 54 1005.3
20260506165906 22 177 6.4 22.5 0.00 0.00 0.00 54 1005.4
20260506165406 22 158 4.8 11.3 0.00 0.00 0.00 54 1005.4
20260506164906 22 179 4.8 12.9 0.00 0.00 0.00 54 1005.5
20260506164406 22 169 4.8 12.9 0.00 0.00 0.00 54 1005.6
20260506163906 22 182 6.4 16.1 0.00 0.00 0.00 55 1005.8
20260506163404 22 170 6.4 16.1 0.00 0.00 0.00 55 1005.7
20260506162906 22 178 4.8 14.5 0.00 0.00 0.00 57 1005.9
20260506162626 22 188 4.8 12.9 0.00 0.00 0.00 58 1005.8
20260506161904 22 163 4.8 12.9 0.00 0.00 0.00 58 1006.1
20260506161403 22 161 4.8 9.7 0.00 0.00 0.00 58 1006.1
20260506160904 22 141 4.8 12.9 0.00 0.00 0.00 59 1006.3
20260506160404 22 146 4.8 12.9 0.00 0.00 0.00 60 1006.4
20260506155904 21 165 4.8 11.3 0.00 0.00 0.00 61 1006.5
20260506155404 21 141 4.8 11.3 0.00 0.00 0.00 60 1006.6
20260506155129 21 145 4.8 9.7 0.00 0.00 0.00 60 1006.7
20260506154403 21 170 4.8 8.0 0.00 0.00 0.00 61 1006.8
20260506154124 21 172 4.8 12.9 0.00 0.00 0.00 61 1006.9
20260506153404 21 159 4.8 12.9 0.00 0.00 0.00 61 1007.0
20260506152904 21 164 4.8 11.3 0.00 0.00 0.00 61 1007.1
20260506152625 21 192 6.4 12.9 0.00 0.00 0.00 61 1007.1
20260506151903 21 173 6.4 14.5 0.00 0.00 0.00 61 1007.1
20260506151403 21 166 6.4 14.5 0.00 0.00 0.00 61 1007.2
20260506150904 21 172 4.8 11.3 0.00 0.00 0.00 61 1007.1
20260506150630 21 201 4.8 12.9 0.00 0.00 0.00 62 1007.2
20260506145902 21 188 4.8 16.1 0.00 0.00 0.00 63 1007.3
20260506145402 21 150 6.4 16.1 0.00 0.00 0.00 63 1007.3
20260506144902 21 169 6.4 11.3 0.00 0.00 0.00 63 1007.3
20260506144402 21 184 6.4 16.1 0.00 0.00 0.00 64 1007.2
20260506143902 21 148 8.0 16.1 0.00 0.00 0.00 64 1007.1
20260506143401 21 171 6.4 17.7 0.00 0.00 0.00 63 1007.1
20260506143129 21 193 8.0 17.7 0.00 0.00 0.00 64 1007.1
20260506142402 21 196 4.8 16.1 0.00 0.00 0.00 63 1006.9
20260506141902 21 149 3.2 12.9 0.00 0.00 0.00 65 1006.8
20260506141402 20 336 4.8 11.3 0.00 0.00 0.00 66 1007.0
20260506140902 20 258 4.8 11.3 0.00 0.00 0.00 67 1007.1
20260506140401 20 163 4.8 12.9 0.00 0.00 0.00 67 1007.1
20260506135901 20 163 4.8 12.9 0.00 0.00 0.00 67 1007.1
20260506135402 20 215 3.2 11.3 0.00 0.00 0.00 68 1007.2
20260506135125 19 150 4.8 12.9 0.00 0.00 0.00 69 1007.3
20260506134404 19 176 4.8 12.9 0.00 0.00 0.00 69 1007.4
20260506133906 19 184 4.8 12.9 0.00 0.00 0.00 69 1007.5
20260506133622 19 146 4.8 12.9 0.00 0.00 0.00 70 1007.7
20260506132907 19 169 4.8 12.9 0.00 0.00 0.00 70 1007.7
20260506132403 19 182 4.8 11.3 0.00 0.00 0.00 70 1007.7
20260506132338 18 188 6.4 11.3 0.00 0.00 0.00 70 1007.5
20260506132050 18 178 4.8 11.3 0.00 0.00 0.00 70 1007.5
20260506130854 18 176 6.4 12.9 0.00 0.00 0.00 70 1007.5
20260506130621 18 165 4.8 12.9 0.00 0.00 0.00 70 1007.7
20260506125853 18 181 4.8 11.3 0.00 0.00 0.00 70 1007.6
20260506125354 18 159 4.8 17.7 0.00 0.00 0.00 70 1007.7
20260506124854 18 180 4.8 17.7 0.00 0.00 0.00 70 1007.4
20260506124354 18 200 4.8 16.1 0.00 0.00 0.00 71 1007.4
20260506123854 18 207 4.8 16.1 0.00 0.00 0.00 71 1007.5
20260506123620 18 165 4.8 12.9 0.00 0.00 0.00 71 1007.6
20260506122857 18 180 6.4 12.9 0.00 0.00 0.00 71 1007.8
20260506122354 18 142 6.4 11.3 0.00 0.00 0.00 71 1007.8
20260506121855 18 207 4.8 11.3 0.00 0.00 0.00 72 1007.8
20260506121354 18 177 3.2 8.0 0.00 0.00 0.00 73 1007.7
20260506120854 17 157 4.8 14.5 0.00 0.00 0.00 73 1007.7
20260506120353 17 157 6.4 14.5 0.00 0.00 0.00 73 1007.8
20260506115852 17 150 4.8 12.9 0.00 0.00 0.00 73 1007.9
20260506115352 17 160 6.4 12.9 0.00 0.00 0.00 73 1007.9
20260506114851 17 198 4.8 12.9 0.00 0.00 0.00 73 1007.9
20260506114611 17 180 3.2 17.7 0.00 0.00 0.00 73 1007.9
20260506113850 17 181 3.2 17.7 0.00 0.00 0.00 73 1008.0
20260506113350 17 170 4.8 11.3 0.00 0.00 0.00 73 1008.1
20260506113109 17 190 4.8 11.3 0.00 0.00 0.00 73 1008.1
20260506112349 17 184 3.2 9.7 0.00 0.00 0.00 74 1008.1
20260506111848 17 208 3.2 8.0 0.00 0.00 0.00 74 1008.0
20260506111348 17 181 4.8 9.7 0.00 0.00 0.00 74 1007.9
20260506110847 17 171 4.8 9.7 0.00 0.00 0.00 74 1008.0
20260506110348 17 153 3.2 9.7 0.00 0.00 0.00 75 1008.1
20260506105848 16 169 3.2 8.0 0.00 0.00 0.00 75 1008.1
20260506105348 17 190 3.2 8.0 0.00 0.00 0.00 75 1008.2
20260506104847 17 165 4.8 11.3 0.00 0.00 0.00 74 1008.0
20260506104348 17 193 6.4 11.3 0.00 0.00 0.00 74 1008.0
20260506103847 17 168 4.8 11.3 0.00 0.00 0.00 74 1007.9
20260506103348 16 184 3.2 9.7 0.00 0.00 0.00 74 1007.9
20260506102848 16 165 3.2 8.0 0.00 0.00 0.00 74 1008.0
20260506102348 16 163 3.2 8.0 0.00 0.00 0.00 74 1008.0
20260506101848 16 166 3.2 9.7 0.00 0.00 0.00 74 1008.0
20260506101348 16 163 4.8 9.7 0.00 0.00 0.00 74 1008.0
20260506100848 16 161 4.8 12.9 0.00 0.00 0.00 74 1007.9
20260506100610 16 179 6.4 12.9 0.00 0.00 0.00 74 1008.1
20260506095848 16 216 4.8 11.3 0.00 0.00 0.00 74 1007.9
20260506095347 16 163 4.8 9.7 0.00 0.00 0.00 74 1007.9
20260506094848 16 167 3.2 9.7 0.00 0.00 0.00 74 1007.8
20260506094348 16 155 4.8 9.7 0.00 0.00 0.00 74 1007.8
20260506094109 16 186 3.2 8.0 0.00 0.00 0.00 74 1008.0
20260506093340 16 175 3.2 9.7 0.00 0.00 0.00 73 1008.0
20260506092841 16 166 3.2 9.7 0.00 0.00 0.00 73 1007.9
20260506092342 16 163 3.2 8.0 0.00 0.00 0.00 73 1007.9
20260506092109 16 159 3.2 8.0 0.00 0.00 0.00 73 1007.8
20260506091834 17 161 4.8 11.3 0.00 0.00 0.00 73 1007.9
20260506090838 17 165 4.8 11.3 0.00 0.00 0.00 72 1008.0
20260506090818 17 171 4.8 8.0 0.00 0.00 0.00 72 1007.9